Theta_e
301 302 303 303 303 302 301 301 302 302 302 301 301 301 301 301 300 299 299 298 298 297 297 296 295 294 292 290 290 290 290 289 288 289 290 288 286 285 285 284 284 284 284 284 283 283 283 282 284 285 286 286 285 285 284 284 283 284 285 286 285 285 285 286 286 285 285 285 285
300 301 302 304 304 303 301 300 301 301 301 301 301 301 301 301 300 300 300 299 299 298 297 296 295 293 292 291 291 291 291 290 288 289 289 287 286 285 284 284 283 284 284 283 283 283 282 282 283 284 285 285 284 284 284 284 283 284 284 285 284 284 284 286 285 285 284 284 284
299 300 300 301 302 302 301 300 300 299 299 299 300 300 301 301 301 301 300 300 298 297 296 295 294 293 292 291 291 291 291 290 289 288 288 286 285 284 284 284 283 284 284 283 282 282 282 282 284 286 286 285 284 284 284 283 284 284 284 284 284 284 285 286 284 284 284 284 284
298 298 298 299 300 300 301 302 300 298 298 298 297 298 299 301 301 300 300 299 297 296 296 295 294 293 293 292 292 291 291 291 290 288 287 286 285 284 284 284 284 284 283 283 282 282 281 281 284 285 285 283 283 283 283 283 283 284 284 283 283 284 285 286 284 284 285 284 283
296 297 298 300 300 300 301 301 300 298 296 296 296 297 298 298 299 299 298 298 298 298 297 294 294 294 293 293 291 291 291 291 292 290 288 286 285 284 284 284 284 283 283 282 282 281 281 281 283 284 283 282 283 283 282 281 281 282 283 283 284 284 284 285 284 284 284 284 283
296 297 298 299 299 299 300 300 298 296 296 295 295 296 296 297 298 298 298 299 298 297 295 294 294 294 293 292 291 291 290 290 291 290 287 286 285 284 284 284 284 283 282 282 281 281 281 281 283 283 282 281 281 280 279 279 281 282 283 283 283 283 283 283 283 283 283 284 282
295 295 296 297 298 298 299 298 296 295 294 293 294 294 295 296 296 297 297 298 296 295 295 296 295 295 293 292 291 291 291 290 290 288 287 286 285 285 285 284 283 283 282 282 281 281 280 281 283 284 284 285 283 280 278 279 281 282 283 283 282 281 281 281 281 282 282 282 282
293 293 294 295 295 296 296 296 295 294 294 294 294 294 294 295 295 295 295 295 295 295 295 296 294 293 293 292 291 291 290 290 290 288 287 287 285 285 284 284 283 283 282 282 281 281 280 281 283 283 283 284 284 281 278 278 280 282 283 282 281 280 279 278 279 280 282 282 282
291 292 293 293 293 293 293 293 293 293 293 294 294 293 293 293 293 293 294 294 295 295 294 295 293 292 292 291 291 291 291 290 290 289 287 286 286 285 285 284 284 283 282 282 282 281 281 282 283 283 282 283 283 280 278 278 280 281 281 281 280 279 278 277 278 279 280 281 282
291 291 291 291 292 292 292 291 291 292 292 293 292 292 292 294 293 293 294 294 294 293 293 293 292 291 291 291 291 291 291 290 290 289 287 287 286 286 285 285 284 283 282 281 281 281 281 282 282 281 280 280 280 279 278 278 279 280 281 281 281 279 278 277 277 278 280 281 281
291 291 291 291 291 291 291 290 291 291 292 293 292 290 291 293 293 292 292 292 292 291 291 292 291 291 291 291 291 291 290 290 290 289 288 287 287 286 286 285 285 284 283 282 281 281 282 283 282 281 280 279 278 278 278 278 279 280 280 280 280 279 279 278 277 277 279 280 280
291 290 290 290 290 290 290 291 291 292 292 292 291 290 289 291 291 291 291 290 291 291 290 290 291 291 291 292 291 291 290 289 289 288 288 287 286 286 285 285 284 284 283 282 282 282 283 283 282 281 280 279 277 277 277 278 279 279 279 278 278 278 279 278 277 276 277 278 280
290 290 289 289 288 289 289 290 292 292 292 292 291 290 290 290 289 290 290 290 291 291 290 289 290 291 291 291 290 290 290 289 288 288 288 287 286 285 285 284 284 284 283 283 282 283 283 282 282 281 281 279 278 277 277 277 278 279 279 279 278 278 279 278 276 276 276 278 279
290 289 288 288 288 288 289 290 291 292 292 291 291 291 290 289 289 290 291 291 291 291 289 288 290 291 291 291 290 289 289 289 288 287 287 287 286 285 285 285 284 284 284 283 283 283 283 283 282 282 281 280 278 277 277 277 278 279 279 279 279 278 278 277 275 276 277 278 279
289 288 288 288 288 289 290 290 291 292 292 291 292 291 290 289 289 291 291 291 291 290 289 289 290 291 291 289 289 289 288 288 287 287 287 286 286 285 285 285 284 284 284 283 283 283 283 283 282 282 282 281 279 278 277 276 277 278 279 279 279 278 277 276 275 275 277 278 279
289 288 288 288 288 289 290 290 291 291 292 292 292 291 290 290 290 290 291 290 290 290 289 289 290 289 289 289 288 288 288 287 287 287 287 286 286 285 285 285 284 284 284 283 283 282 282 283 282 282 282 281 280 278 277 276 277 277 278 278 278 278 277 276 275 275 276 277 279
289 288 288 288 288 289 290 290 291 291 291 292 291 291 291 290 290 291 291 291 291 290 289 289 289 289 288 289 288 288 288 287 287 287 287 287 286 286 285 285 285 284 284 283 283 282 282 282 282 281 281 281 280 279 278 277 277 277 277 277 277 277 277 278 276 276 276 277 279
289 289 288 288 289 289 290 290 290 291 291 291 291 291 291 290 290 291 292 292 291 290 289 288 289 289 288 288 288 288 289 288 288 288 288 287 287 286 285 285 285 284 284 284 283 283 282 281 281 280 280 280 280 279 278 277 277 277 277 277 277 276 277 278 277 276 276 277 279
289 289 289 289 289 289 290 290 290 290 290 290 290 290 290 290 290 290 291 291 291 290 289 288 288 288 288 288 288 289 290 289 288 287 287 287 286 286 286 285 285 284 284 284 284 283 283 282 281 280 280 280 279 279 278 278 277 277 277 277 277 277 277 277 276 276 276 277 278
289 289 289 289 290 290 290 290 290 290 290 289 289 289 289 289 289 290 290 290 291 290 289 289 288 288 288 288 288 289 289 289 288 287 287 286 286 286 285 285 284 283 283 283 283 283 282 282 281 281 280 280 280 279 279 278 278 277 277 278 278 277 277 277 277 277 277 277 278
290 290 290 290 290 290 290 290 290 290 289 288 288 289 289 289 289 289 290 291 290 289 289 289 289 288 288 288 287 288 289 290 288 287 286 286 286 285 285 285 284 283 283 283 283 283 282 282 281 281 281 281 281 280 279 279 278 278 278 278 279 279 279 279 278 278 278 278 278
291 291 291 290 290 290 290 290 290 289 289 289 289 288 288 289 289 289 290 290 289 288 288 289 289 288 288 288 288 288 288 289 287 286 285 285 285 285 285 284 283 283 282 282 283 282 282 282 282 282 282 282 281 281 280 280 279 278 278 279 280 281 281 281 281 280 279 278 278
291 291 291 290 290 290 291 290 289 289 289 289 289 288 288 289 289 289 289 288 289 288 288 289 289 289 288 288 288 287 287 286 285 284 284 284 284 283 283 283 283 283 283 283 283 282 282 282 282 282 282 282 281 281 281 281 280 279 279 279 280 281 283 284 284 283 282 281 280
292 292 292 291 290 290 290 290 289 289 289 289 289 289 289 288 288 288 288 288 288 288 288 289 289 288 287 287 286 286 286 285 284 283 283 282 283 282 282 283 283 283 283 284 284 284 284 284 283 283 283 283 283 282 282 281 281 280 279 279 279 280 282 285 286 285 284 284 283
293 292 292 291 291 290 290 290 290 290 290 290 290 289 289 288 288 288 288 288 288 288 288 288 288 287 286 286 285 285 285 285 285 284 283 282 282 282 282 283 284 284 285 286 288 289 289 289 287 285 284 284 285 285 284 284 283 282 281 281 281 281 282 283 285 285 285 285 285
294 293 292 291 291 290 290 290 290 290 290 290 290 289 289 289 288 288 288 288 288 288 288 288 287 287 287 286 285 285 285 286 285 285 284 283 282 282 283 284 285 285 286 288 291 292 293 293 292 289 286 284 285 285 286 286 286 285 283 282 282 281 282 283 283 283 283 284 284
294 293 293 292 291 290 290 290 290 290 290 290 290 289 289 289 289 288 288 288 288 288 288 288 287 288 289 286 285 284 285 286 285 285 284 283 283 283 283 284 285 285 287 289 292 293 294 294 294 293 290 285 285 285 285 285 285 285 285 283 282 282 281 282 281 281 282 283 284
295 294 293 293 292 291 291 291 291 290 290 290 290 290 289 288 288 288 288 288 288 288 288 288 288 288 289 287 286 285 285 285 285 285 284 284 284 283 283 285 285 286 288 291 292 294 294 295 295 295 293 289 285 284 284 283 284 284 284 284 283 282 281 281 281 281 281 281 282
295 295 294 293 293 292 292 291 291 291 291 290 290 289 289 288 288 288 288 288 288 288 288 288 289 288 288 287 287 286 285 285 285 285 284 283 283 284 284 284 285 286 289 292 293 294 294 295 295 295 295 293 288 285 284 284 284 284 284 283 283 282 282 281 281 280 280 279 280
295 295 294 294 293 293 292 292 292 292 291 291 290 289 289 288 288 288 288 288 288 288 289 289 289 288 288 288 287 286 286 285 285 285 284 283 283 284 284 285 285 286 289 293 293 294 294 294 295 295 295 295 290 287 284 284 283 283 283 283 282 282 281 281 280 280 279 280 279
296 295 295 294 294 293 293 293 293 292 292 291 290 290 289 289 288 288 288 288 288 289 289 289 288 288 288 288 287 287 286 286 285 285 284 284 284 284 284 284 284 286 289 292 293 294 294 294 295 295 295 295 292 288 285 284 283 283 283 283 282 281 281 280 280 280 279 279 278
296 296 295 295 294 294 294 294 293 292 292 291 290 290 289 289 289 289 289 289 289 289 289 288 287 287 287 287 287 287 286 286 285 285 285 284 284 284 284 284 284 285 288 292 293 294 294 294 294 294 295 295 294 290 287 285 284 283 283 283 282 281 281 281 281 280 279 279 279
296 296 295 295 295 294 294 294 293 293 292 291 291 290 290 290 290 290 290 289 289 289 288 288 287 287 287 287 287 287 286 286 286 286 286 285 285 284 284 284 284 286 289 292 293 293 294 294 294 294 294 295 294 292 289 287 286 285 284 284 283 282 281 281 281 280 280 279 279
296 296 295 295 295 295 294 294 294 293 292 291 291 290 290 290 290 290 289 290 289 289 288 288 288 288 287 287 287 287 287 287 286 286 286 285 285 284 284 284 284 287 290 291 292 293 294 294 294 294 294 295 294 293 291 289 288 287 286 285 285 284 284 283 282 282 281 280 280
296 296 295 295 295 295 295 294 294 293 292 291 291 291 291 290 290 290 290 290 290 289 289 289 288 288 288 287 287 287 287 287 287 286 286 286 285 285 284 284 285 287 290 291 292 293 293 294 294 294 294 294 293 293 292 290 289 288 287 286 286 286 285 285 284 284 283 283 282
296 296 295 295 295 295 294 294 293 293 292 292 291 291 291 291 290 290 290 291 290 289 289 289 288 288 288 287 287 287 287 287 287 286 286 286 285 285 284 284 285 287 290 291 292 292 293 294 294 294 294 294 293 292 292 291 290 289 288 287 287 286 286 286 285 285 285 284 284
296 296 295 295 295 294 294 293 293 292 292 292 291 291 291 291 291 291 291 291 290 289 289 288 288 288 288 287 287 287 288 287 287 287 286 286 286 285 285 285 285 286 289 291 292 292 293 294 294 294 294 293 292 292 292 292 291 289 288 288 287 287 287 286 286 286 285 285 285
297 296 295 295 295 294 294 293 293 292 292 292 292 292 292 291 291 291 291 291 290 289 289 288 288 288 288 288 288 288 288 287 287 287 287 286 286 286 286 285 285 286 288 291 292 293 293 294 294 294 294 293 292 292 292 292 291 290 289 288 288 288 287 287 287 286 286 286 286
296 296 295 295 295 294 294 293 293 293 292 292 292 292 292 292 291 291 291 291 290 289 289 289 288 288 289 289 288 288 287 287 288 287 287 287 287 287 287 286 285 286 288 290 292 293 293 294 294 294 294 293 292 292 292 292 291 290 290 289 288 288 288 288 287 287 287 287 288
296 296 295 295 295 294 294 293 293 293 293 293 292 292 292 292 292 292 291 291 290 290 289 289 289 289 289 289 289 288 287 287 287 288 287 287 287 288 288 287 286 286 288 290 292 293 293 294 294 295 294 294 293 292 292 292 291 290 290 289 289 288 288 288 288 288 287 287 288
296 296 295 295 295 294 294 294 294 294 293 293 293 293 293 292 292 292 291 291 290 290 290 290 289 289 289 290 289 288 288 287 287 287 288 288 288 288 289 287 287 286 287 289 291 293 293 294 294 295 295 294 293 293 292 291 290 290 289 289 289 288 288 288 288 287 287 286 287
Wind_Speed
8 7 7 6 6 5 5 5 5 5 5 5 6 6 6 6 6 5 5 5 5 5 5 4 5 4 4 5 6 6 6 5 5 5 6 6 5 5 5 5 5 4 4 4 3 3 2 2 2 2 1 1 2 1 1 1 2 2 2 2 2 3 3 4 4 3 3 3 2
8 8 8 7 7 6 5 5 5 5 5 5 6 6 6 6 6 6 5 6 5 5 4 4 4 5 5 6 7 7 7 6 6 6 6 6 5 5 5 5 5 5 5 4 4 3 3 3 2 2 2 1 1 1 1 1 2 2 3 3 2 2 3 3 3 3 3 3 2
9 8 7 7 7 6 6 5 5 6 6 5 5 5 5 5 5 5 6 5 5 5 4 4 4 5 6 7 6 7 7 7 7 6 6 5 5 5 6 5 5 5 4 4 4 3 3 3 2 2 2 2 2 2 1 1 1 2 3 3 2 2 2 3 3 3 2 2 2
8 8 8 8 9 9 8 7 7 7 6 5 5 5 5 5 5 5 5 5 5 5 5 5 5 5 6 7 7 7 7 7 7 7 6 6 5 6 6 6 6 5 4 4 4 3 3 3 2 2 2 2 2 2 2 1 2 1 1 2 2 2 2 2 2 2 2 2 2
8 9 9 9 10 10 9 8 7 6 5 4 4 5 5 5 5 4 4 5 5 6 6 5 5 5 6 7 7 7 7 7 8 7 6 6 6 6 6 6 6 5 5 4 4 3 3 3 2 2 2 2 2 2 1 2 2 2 1 1 1 1 2 2 2 2 2 2 1
9 9 9 9 10 10 9 7 7 6 5 4 5 6 6 5 5 5 6 6 6 6 6 6 6 6 6 7 7 8 7 7 7 7 6 6 6 6 6 6 6 6 5 4 4 3 3 3 2 1 1 1 1 1 1 2 2 2 1 1 0 1 1 2 2 2 2 2 2
9 9 10 10 10 9 8 7 7 6 5 5 6 7 8 7 7 7 7 7 5 5 6 6 7 7 7 7 7 8 7 7 7 7 7 7 6 6 6 6 6 6 5 5 4 4 3 3 2 2 2 2 1 1 1 1 2 2 2 2 1 0 1 1 1 2 3 3 3
8 9 10 10 9 9 9 8 7 6 6 6 7 9 9 9 9 8 8 6 5 6 6 6 7 8 8 8 8 8 8 8 7 7 7 7 7 7 7 7 6 6 6 5 5 4 4 3 3 2 2 2 2 1 1 2 2 3 3 3 1 0 1 1 1 2 3 4 4
7 8 9 9 9 9 9 8 7 7 7 8 9 9 9 9 9 9 8 6 6 6 6 6 7 8 9 9 9 9 9 9 8 8 7 7 7 7 7 6 7 6 6 5 5 5 5 3 3 2 2 2 2 2 2 2 3 3 4 3 2 1 0 1 1 2 3 4 5
9 9 9 9 9 9 9 8 8 8 9 9 9 9 8 9 9 9 8 6 6 6 6 7 8 8 9 10 10 9 9 9 9 8 8 8 8 8 8 7 7 7 6 5 5 5 5 4 3 3 2 2 2 2 2 3 4 4 4 3 2 1 1 0 1 1 2 4 4
11 10 9 9 9 9 8 8 8 8 9 9 9 9 8 9 8 7 6 5 6 7 8 8 8 9 10 10 9 9 9 9 8 9 9 8 9 9 9 8 8 8 7 6 5 5 5 4 4 4 3 2 2 2 3 3 4 4 4 3 2 2 2 1 1 1 2 3 4
11 10 8 8 8 8 8 8 8 8 9 10 9 9 8 8 7 7 6 6 7 8 8 8 9 10 10 9 9 9 9 9 9 9 9 9 9 9 8 8 8 8 8 7 6 5 5 5 5 5 5 3 2 2 3 4 4 4 4 3 3 3 3 3 2 1 1 2 3
10 9 8 8 8 8 8 9 8 9 9 10 10 9 8 7 7 7 7 8 9 8 7 7 9 10 10 9 9 9 9 9 9 9 9 9 9 9 8 8 8 8 8 7 6 6 6 6 7 7 7 5 4 3 4 4 5 5 5 5 4 4 4 4 2 2 2 2 3
9 9 8 8 8 8 8 9 9 9 9 10 10 9 8 7 7 7 8 9 9 8 7 7 7 8 9 9 9 9 9 9 9 10 9 9 9 9 9 8 9 8 8 7 7 7 7 7 8 8 8 7 6 5 4 5 5 6 6 6 6 6 5 4 3 2 3 3 3
9 9 9 8 8 8 9 10 9 9 10 11 10 9 7 6 7 7 8 8 8 8 7 7 7 8 8 9 9 10 10 9 10 10 10 10 9 9 9 9 9 9 8 7 7 8 8 9 9 8 8 8 7 6 5 5 5 6 6 7 7 6 5 4 3 3 4 4 4
9 9 9 9 9 9 10 10 9 9 9 10 9 8 7 7 6 7 8 8 8 7 7 8 8 7 7 8 9 9 10 9 10 10 10 10 10 10 10 10 10 9 9 9 8 8 8 8 8 8 8 8 8 7 6 5 5 5 6 6 6 6 5 5 4 4 4 5 5
10 10 9 9 10 11 11 11 9 9 9 10 9 9 8 7 6 7 8 9 7 7 8 9 8 7 7 7 8 8 9 9 10 10 11 11 11 11 11 10 10 10 10 9 9 9 8 8 7 8 8 8 8 7 7 6 6 5 5 5 5 5 5 5 5 5 5 5 5
11 11 10 11 12 12 13 12 11 10 10 10 9 8 8 7 7 8 8 9 8 9 9 9 8 8 8 9 8 8 9 9 10 10 11 11 11 11 11 11 10 10 10 10 10 10 9 8 8 7 7 7 7 6 6 6 6 6 5 5 5 5 5 5 5 5 5 5 5
11 11 11 12 13 13 13 13 12 11 11 10 8 8 8 8 8 8 8 8 9 10 10 10 9 8 9 10 9 9 9 10 11 11 11 10 10 10 10 10 9 9 9 10 10 10 9 9 8 7 7 6 6 6 6 6 5 5 5 5 5 5 5 5 5 5 5 5 5
12 12 13 13 13 13 13 13 12 11 10 8 8 8 9 9 9 9 10 10 9 9 10 10 9 9 9 10 10 10 10 9 10 10 10 10 10 10 10 10 9 9 9 9 9 9 9 8 8 8 8 7 7 6 6 6 5 5 5 5 5 5 5 5 5 5 5 5 4
13 13 13 13 13 13 12 12 11 10 9 8 9 9 9 9 9 10 10 10 9 9 9 10 10 10 10 10 11 11 10 8 9 9 9 9 10 10 10 9 9 9 8 9 9 9 9 8 8 8 8 8 8 7 7 6 6 5 5 5 5 5 5 5 5 5 5 5 5
13 13 12 12 12 11 11 11 10 9 9 9 9 9 9 9 10 10 10 9 8 8 9 10 11 11 11 11 11 10 9 7 7 8 8 8 8 9 8 8 8 8 8 9 9 9 9 8 8 8 8 8 8 8 7 7 6 6 6 5 5 5 6 6 5 5 5 4 4
12 11 11 10 10 11 11 10 9 9 9 10 10 10 10 10 10 9 9 8 8 8 9 10 10 11 11 11 10 10 9 7 7 6 7 7 7 7 7 7 8 9 9 9 8 8 8 8 8 8 8 8 8 7 7 7 7 6 6 6 6 6 6 6 6 5 4 4 4
12 11 10 9 9 10 10 9 9 10 11 11 11 11 10 10 9 9 8 9 9 10 10 9 9 9 9 9 9 9 9 9 8 8 7 7 7 7 7 7 8 9 9 8 9 9 9 8 7 7 7 7 7 7 7 7 7 6 6 6 6 6 6 6 6 6 5 5 4
11 10 10 9 10 10 10 10 11 11 12 12 11 11 10 10 9 9 9 10 10 10 10 10 8 8 8 8 8 9 9 10 10 9 8 8 7 7 7 7 8 8 8 8 12 14 14 11 9 8 7 7 7 7 7 7 7 7 7 6 6 6 6 6 6 7 7 6 6
11 10 10 10 10 10 11 11 12 12 12 11 11 11 11 10 10 9 10 10 11 11 10 10 9 8 8 8 8 9 9 10 10 10 10 9 8 8 8 8 7 7 7 9 14 17 18 17 14 11 8 7 7 7 7 7 8 8 7 7 7 6 6 7 7 7 7 7 7
11 11 11 11 10 11 12 12 12 12 12 11 11 12 11 10 10 10 11 11 11 10 9 9 9 9 9 8 9 10 10 10 10 10 10 10 10 10 9 9 8 7 8 12 16 18 19 20 19 16 12 7 7 7 7 7 7 8 8 7 7 7 7 7 7 7 6 6 7
11 11 11 11 11 12 12 12 12 12 12 12 12 12 11 10 10 11 11 11 11 10 9 9 8 8 7 7 9 10 11 10 10 9 9 10 10 11 10 9 8 8 10 15 17 19 19 20 20 19 16 11 8 7 7 6 7 7 7 7 7 7 7 7 7 6 6 6 6
12 11 11 11 12 12 12 12 13 13 13 12 12 11 10 10 11 12 12 12 11 11 10 8 7 6 7 8 9 10 11 11 10 9 9 9 10 11 11 10 9 10 13 17 18 19 19 20 20 20 19 16 9 7 6 6 6 6 6 6 6 7 7 7 6 6 6 6 6
12 11 11 12 12 13 13 13 13 13 12 11 11 11 11 11 12 12 13 13 13 12 11 8 8 8 9 10 10 10 10 10 9 9 9 10 11 11 11 11 10 11 13 18 19 19 19 20 20 20 20 19 12 8 6 6 6 6 6 6 6 7 7 7 6 6 6 6 6
12 12 12 12 13 13 13 13 13 12 11 10 11 11 12 12 13 14 13 13 12 11 10 9 10 11 12 11 10 10 10 10 10 10 11 12 12 12 12 11 10 11 13 18 19 19 19 19 20 20 20 20 13 9 7 7 7 7 6 6 7 7 7 6 7 7 7 7 6
12 12 12 13 13 13 13 13 12 11 11 11 12 12 13 14 14 14 13 12 10 10 10 10 12 13 13 12 11 11 11 11 11 11 12 12 12 12 11 11 10 11 14 18 19 19 19 19 19 20 20 20 15 10 8 8 7 7 7 7 7 7 7 7 6 7 7 8 7
12 12 12 13 14 13 13 12 11 11 11 12 12 13 13 14 13 12 12 11 10 11 12 13 13 14 14 13 12 12 12 12 12 12 12 12 12 11 11 10 10 11 15 18 19 20 19 19 19 20 20 20 15 11 9 9 8 7 7 7 7 8 8 8 7 7 8 8 7
12 12 13 13 14 13 12 12 11 11 11 12 13 13 13 13 13 12 12 11 10 11 12 13 13 13 13 12 12 12 12 12 12 12 12 12 11 11 11 10 9 11 15 19 20 20 20 20 19 19 20 20 15 11 9 9 8 8 8 9 8 8 8 9 8 8 8 8 7
12 12 13 13 13 13 12 11 11 11 12 13 13 14 14 13 14 13 13 12 11 11 11 11 11 10 10 10 11 12 12 12 12 12 12 11 11 11 12 11 10 12 16 19 20 20 20 20 20 19 19 17 12 9 9 9 9 9 10 10 9 9 9 9 9 9 9 9 8
12 12 13 13 13 12 12 11 11 11 12 13 14 14 14 14 13 13 12 12 11 11 11 11 11 10 10 10 10 12 13 13 13 12 12 11 12 12 12 12 11 13 17 19 20 20 20 20 20 19 18 14 10 8 8 8 8 9 10 10 10 10 10 9 9 9 9 8 9
11 12 12 12 12 12 11 11 11 12 13 14 14 14 14 14 13 12 11 11 11 11 12 12 12 12 13 13 12 12 12 13 12 12 12 12 12 13 13 12 11 13 16 19 20 20 20 20 20 19 17 12 9 8 7 7 7 7 8 9 9 9 9 8 8 9 9 9 9
11 11 12 12 12 12 11 11 12 13 14 14 14 14 13 12 12 11 11 11 11 12 13 12 13 13 14 13 12 12 12 11 12 12 12 12 13 13 13 12 11 11 14 17 19 20 20 20 20 19 16 11 9 8 7 6 6 7 7 8 8 8 8 7 7 8 8 10 11
11 11 12 12 12 12 12 12 13 14 14 14 13 13 12 12 11 10 10 11 11 12 12 13 13 13 13 13 11 11 11 11 12 12 13 13 13 13 13 12 11 11 12 16 18 20 20 20 20 20 18 12 9 8 7 6 6 7 7 7 7 7 7 7 7 7 8 10 13
10 11 12 12 12 12 12 13 14 14 13 13 13 13 13 12 11 10 10 10 10 11 12 12 13 12 12 12 11 11 11 11 11 12 13 12 13 13 14 12 10 10 12 15 18 19 20 20 20 20 18 12 9 8 6 6 6 7 7 6 6 6 6 6 6 6 7 8 11
10 11 12 13 13 13 13 14 14 13 13 12 13 12 11 11 10 10 10 10 10 10 10 10 11 11 11 11 11 11 11 12 12 12 12 12 12 13 13 12 10 10 11 14 17 19 20 20 20 20 19 12 9 7 6 6 7 7 8 7 6 6 5 5 5 5 6 6 7
Wind_Direction
207 206 204 201 198 196 197 202 201 199 195 193 194 193 192 191 196 199 200 199 202 203 203 201 199 194 187 181 182 184 186 185 183 182 181 179 177 173 168 164 163 160 157 153 144 136 129 122 118 114 113 115 119 119 114 109 124 127 129 130 135 137 140 147 157 163 165 168 163
211 210 209 208 205 202 199 201 204 203 200 198 196 194 192 192 197 199 201 202 204 202 199 198 195 189 184 183 183 184 185 186 186 186 185 183 179 173 169 168 168 165 161 156 152 147 141 135 132 130 127 117 118 124 134 133 132 132 135 143 145 143 145 155 167 169 167 164 154
214 213 212 212 210 207 205 204 206 204 203 202 198 195 193 195 198 200 202 203 202 199 196 196 192 187 184 183 185 185 186 186 187 187 187 185 181 176 172 171 171 169 165 159 156 152 147 143 147 150 150 142 143 153 164 173 151 144 146 156 151 146 152 165 170 167 160 155 149
216 214 213 214 214 212 211 209 207 204 202 199 197 196 196 199 200 201 201 199 198 198 199 195 189 187 185 184 186 188 188 187 186 186 186 184 182 179 177 174 172 171 169 163 159 155 149 146 149 155 158 157 164 172 177 166 156 150 149 152 143 147 157 169 166 162 156 155 155
218 217 215 216 216 216 216 215 209 204 199 193 193 198 202 204 203 201 198 196 201 202 199 190 186 185 186 185 185 187 188 188 188 187 186 184 183 182 180 177 175 172 169 164 162 158 153 149 151 154 158 163 171 177 172 150 150 147 133 104 117 139 153 160 159 153 149 148 150
219 219 219 220 219 220 221 220 213 206 197 187 192 199 205 207 205 202 202 203 203 200 193 185 184 184 184 183 184 186 187 189 189 187 185 184 184 183 183 183 179 173 167 164 161 157 153 152 158 163 163 161 165 152 128 130 146 151 146 128 127 122 135 154 156 148 141 141 150
218 219 220 222 220 221 222 221 217 208 198 189 195 202 206 207 205 205 205 204 199 193 189 188 187 185 183 182 185 186 188 189 189 186 183 183 183 184 185 186 180 175 170 166 162 158 156 156 165 174 180 176 171 135 105 128 150 162 172 192 196 119 115 153 149 144 144 150 157
218 218 219 220 220 220 220 219 215 210 204 202 205 208 208 206 204 204 204 202 197 193 191 192 188 185 182 182 185 187 188 188 188 187 184 182 182 184 186 185 181 178 175 168 164 162 162 162 168 175 179 181 181 167 141 139 157 173 186 196 197 135 81 117 136 149 152 155 159
219 219 219 219 219 219 218 216 212 209 209 212 214 212 210 205 203 202 202 203 199 194 190 191 187 184 182 182 185 186 187 187 187 187 186 183 182 184 185 184 182 182 179 173 168 165 164 166 172 176 177 176 178 169 152 145 162 180 191 195 190 171 63 53 119 148 155 156 162
220 218 217 217 218 217 215 213 212 211 213 217 218 215 211 207 204 203 202 202 194 190 189 191 184 182 182 184 185 186 187 187 186 186 185 184 183 184 184 185 184 184 184 181 173 168 167 170 176 180 180 170 166 161 155 152 167 181 192 194 185 178 172 85 130 152 160 162 167
220 218 216 216 216 214 212 212 215 216 217 220 220 217 213 210 207 205 201 193 186 189 192 188 181 181 183 186 187 186 186 185 185 185 185 187 186 186 185 185 184 184 185 184 178 173 172 176 182 186 188 181 163 158 159 162 171 180 188 191 182 182 186 193 176 167 166 166 168
222 220 217 216 214 211 210 213 217 219 220 223 221 218 214 212 207 200 193 185 187 192 193 186 181 182 184 186 186 185 184 184 183 184 185 187 187 186 185 185 184 185 185 184 180 178 180 184 186 189 192 193 180 168 167 169 175 181 186 187 184 188 193 196 192 181 167 159 165
221 220 218 217 212 210 210 215 219 221 221 223 222 218 214 212 203 194 187 186 191 192 190 185 183 183 184 185 184 183 182 183 183 184 186 188 187 186 186 186 186 186 186 185 182 182 184 188 188 190 193 196 194 185 177 175 180 185 188 189 192 197 200 197 189 175 161 157 170
218 217 217 214 210 209 212 217 221 222 222 223 222 218 213 209 200 192 188 190 192 189 185 183 186 187 187 183 181 181 181 182 182 184 186 188 187 186 187 188 187 187 187 187 186 186 187 191 191 192 193 196 196 192 185 181 186 189 191 191 196 200 201 195 180 167 164 171 180
217 216 215 210 208 210 214 218 221 222 222 223 221 216 210 205 200 195 192 193 192 186 180 180 188 191 188 182 179 179 179 180 182 185 187 189 189 188 189 190 189 188 188 187 188 190 191 192 191 192 193 195 196 193 188 187 191 194 195 194 196 197 195 187 174 169 171 176 182
217 216 214 209 210 212 216 218 221 222 222 223 219 214 208 204 200 197 196 195 191 185 181 183 187 188 186 181 178 177 178 180 183 186 189 191 191 192 192 192 191 190 189 187 190 194 196 194 192 191 192 194 194 192 189 189 192 196 198 197 195 194 190 182 175 174 176 175 181
218 217 213 210 212 214 216 218 220 221 221 222 217 212 207 203 200 199 199 197 191 187 186 188 186 183 181 183 180 179 179 183 186 190 192 194 193 193 194 194 193 191 189 187 190 195 198 198 194 191 190 192 192 190 188 187 190 194 196 195 193 191 188 182 177 175 175 175 183
219 217 214 212 214 216 217 218 219 220 220 220 216 211 206 202 200 201 202 199 193 190 189 190 186 182 181 183 183 184 185 187 191 194 196 196 194 194 195 196 194 191 190 189 192 194 196 196 192 190 190 191 191 189 187 185 188 190 191 190 190 189 186 182 178 175 174 177 183
220 218 216 215 216 217 218 218 219 219 220 218 214 211 207 204 201 202 204 204 198 193 190 188 187 186 185 185 186 188 190 191 194 196 197 196 194 194 195 196 193 191 191 192 194 194 193 191 189 188 189 190 191 190 188 186 187 188 189 188 188 187 185 182 178 176 176 178 180
220 219 218 217 217 218 219 219 219 219 219 217 213 211 208 206 203 203 205 207 202 196 190 188 189 190 190 189 189 192 195 194 194 196 196 194 193 194 195 193 191 191 192 194 195 194 192 189 187 187 188 189 191 192 191 189 190 190 190 189 188 187 185 182 177 176 176 176 176
222 221 219 218 218 218 219 220 219 219 218 216 213 211 210 207 205 206 207 207 200 195 193 193 193 193 193 193 193 196 198 196 194 194 195 194 194 194 193 189 188 189 192 195 195 194 191 189 187 187 188 190 192 193 193 191 192 193 194 194 192 189 186 182 177 175 174 175 175
224 222 221 219 218 218 219 219 218 217 217 216 214 212 210 209 209 209 209 205 198 197 198 200 198 197 195 195 195 197 198 196 194 194 194 193 195 193 190 184 184 187 192 196 195 193 191 189 188 188 189 192 194 194 193 192 193 194 196 198 197 195 192 189 184 180 177 176 177
226 223 221 219 218 218 218 217 216 216 216 216 215 214 212 212 211 210 208 204 201 202 203 204 203 201 198 197 195 195 196 195 195 195 194 193 192 190 186 182 184 188 192 195 193 191 189 189 190 190 191 193 195 195 194 193 193 193 195 198 201 202 202 202 200 199 198 196 193
226 223 220 218 216 216 216 214 213 214 215 216 215 214 213 213 211 209 206 205 206 206 207 208 206 203 199 196 194 193 193 194 195 196 195 193 190 187 185 185 189 193 196 196 193 191 190 189 191 193 195 196 197 196 195 194 193 193 194 196 201 205 209 210 210 213 217 220 222
226 222 219 217 215 214 213 212 213 214 215 216 214 213 212 212 209 207 206 207 209 209 209 209 206 202 197 194 193 193 193 194 195 194 194 194 191 189 187 191 196 199 200 201 200 199 198 196 194 194 196 199 201 200 199 199 197 195 195 196 200 205 210 215 215 216 217 221 225
225 222 219 216 213 212 212 213 214 215 215 215 213 212 212 210 208 206 207 209 211 210 209 207 205 201 197 193 193 194 196 198 197 194 192 192 192 192 194 198 202 203 204 206 206 206 206 205 202 199 196 198 200 202 204 206 204 201 200 200 201 204 209 215 218 217 216 217 219
225 222 219 215 213 213 214 214 214 215 215 214 212 212 211 208 206 206 207 210 211 210 207 206 205 202 198 194 194 197 200 202 199 196 193 191 193 195 198 203 205 205 207 209 211 211 211 211 210 206 200 194 198 201 204 206 205 204 204 205 205 207 209 213 215 215 215 216 215
225 222 219 215 214 215 215 215 215 215 215 214 212 210 208 205 205 206 208 210 209 207 206 206 205 201 198 197 199 201 202 201 199 196 194 193 194 197 200 205 206 207 209 210 213 214 215 215 215 212 206 197 196 198 201 202 203 204 206 208 209 209 210 211 211 210 210 211 212
226 222 218 215 216 216 216 215 215 215 215 213 211 209 206 204 205 207 208 208 207 206 206 205 201 199 200 203 204 203 202 201 199 196 194 195 198 201 203 205 207 209 211 211 213 215 216 217 218 216 212 203 197 194 197 200 202 204 206 208 208 208 209 209 206 204 203 204 205
226 222 219 217 217 217 217 215 215 215 214 212 209 207 205 205 206 207 208 208 208 207 205 200 195 198 202 205 203 202 202 203 200 197 195 197 201 204 206 205 205 208 211 212 214 215 216 217 218 219 217 209 200 193 193 198 200 203 206 208 207 205 204 203 200 198 197 196 197
226 223 220 219 219 219 218 217 216 214 213 210 207 206 206 207 208 209 209 208 209 208 204 197 196 200 202 202 200 200 201 201 200 199 199 201 204 206 206 205 205 207 210 212 214 215 216 217 218 219 218 214 204 195 190 196 199 202 206 207 205 202 199 197 196 195 194 192 191
227 223 221 221 221 221 219 217 215 213 211 209 208 207 208 210 211 211 210 208 208 206 203 200 200 202 202 200 199 199 199 199 200 201 202 203 205 206 207 206 204 206 210 212 214 215 216 216 217 218 219 217 210 200 190 192 197 202 206 207 203 199 196 195 196 194 192 190 190
226 224 222 222 222 222 220 217 214 211 209 209 209 209 210 212 212 211 209 207 205 203 203 203 203 203 202 199 199 199 200 200 201 203 205 205 205 206 207 208 207 207 209 211 213 214 215 216 216 217 218 218 215 205 193 190 195 201 205 208 205 200 196 195 195 194 192 191 192
225 223 223 223 223 222 220 216 212 210 208 209 210 211 211 211 211 210 208 206 203 203 204 205 205 205 203 200 198 199 200 202 203 204 204 205 204 205 207 209 210 209 209 211 213 214 215 215 216 216 216 217 217 210 199 194 196 200 204 207 207 204 201 199 198 196 195 193 194
224 222 222 223 223 222 219 214 211 208 208 209 211 211 211 210 209 208 206 203 202 203 205 207 207 206 205 203 200 200 201 203 203 203 203 202 202 205 208 211 212 210 209 210 212 213 214 215 215 215 214 215 216 212 204 198 199 201 203 204 205 204 203 201 201 200 198 196 197
224 221 222 223 222 220 217 213 209 207 208 210 211 211 211 210 209 208 205 200 199 201 204 206 205 205 204 204 203 203 203 203 203 202 201 199 201 204 209 212 212 211 210 211 211 212 213 214 214 213 212 212 213 212 209 203 202 201 202 203 205 204 202 200 201 201 200 199 199
225 222 221 222 221 218 215 211 208 208 209 211 212 211 210 209 209 206 202 196 197 200 202 202 202 203 203 203 203 203 203 202 200 199 199 199 201 204 208 211 211 210 211 211 211 212 212 213 212 211 210 209 210 210 210 206 203 201 201 203 206 204 202 198 200 201 201 200 200
226 222 220 220 219 217 213 209 208 209 211 212 212 211 209 207 207 204 199 195 197 199 201 201 202 203 204 202 202 202 201 199 197 197 198 200 201 203 206 209 209 209 210 211 212 212 212 212 211 210 209 208 207 208 208 206 203 200 200 202 204 203 200 198 198 200 201 201 201
226 222 219 218 218 215 212 209 209 210 212 212 212 210 208 206 205 202 198 196 197 199 200 202 203 204 203 200 200 200 199 198 197 196 197 199 201 202 203 207 207 206 207 210 212 212 212 211 211 210 209 209 206 206 206 205 203 202 200 200 200 200 199 198 197 199 201 202 204
225 221 218 217 216 214 212 210 211 211 211 210 210 209 207 205 203 200 196 196 197 199 201 203 203 202 200 197 198 199 198 197 197 197 197 198 200 201 202 205 205 204 205 208 211 212 212 212 212 211 210 210 206 204 204 204 204 204 203 201 197 196 196 197 197 197 199 201 205
224 219 217 216 215 213 212 212 212 212 210 209 209 208 206 203 200 196 194 194 196 197 199 202 201 199 197 195 197 197 197 198 197 197 197 196 198 200 202 204 203 202 203 206 210 212 213 213 214 213 211 209 204 201 200 200 205 207 207 205 199 196 193 193 195 196 196 195 200